Location: Cicognara
(44.9500°N, 10.4667°E)
Time: 09:21:39
(UTC+00:00)

ALOS 2 - Pass Details

Date: 20 June 2021
Orbit: 630 x 632 km, 97.9° (Epoch: 04 August)

Event Time Altitude Azimuth Distance (km) Brightness Sun altitude
Exits shadow 21:58:01 24° 104° (ESE) 1,307 3.9 -19.1°
Maximum altitude 21:59:33 31° 68° (ENE) 1,125 3.9 -19.2°
Drops below altitude 10° 22:03:25 10° 7° (N) 2,024 6.2 -19.4°
Sets 22:05:48 0° 357° (N) 2,937 7.5 -19.6°
